QPF
0.01 0.01 0.01 0.02 0.01 0.01 0.01 0.02 0.02 0.03 0.04 0.02 0.02 0.02 0.02 0.03 0.03 0.04 0.04 0.04 0.04 0.04 0.05 0.08 0.11 0.14 0.10 0.10 0.14 0.14 0.13 0.14 0.16 0.13 0.11 0.10 0.09 0.11 0.14 0.12 0.11 0.10 0.09 0.10 0.12 0.12 0.09 0.08 0.09
0.00 0.00 0.01 0.01 0.02 0.01 0.01 0.02 0.02 0.03 0.03 0.03 0.03 0.03 0.03 0.03 0.03 0.04 0.06 0.06 0.04 0.04 0.04 0.06 0.11 0.12 0.09 0.09 0.13 0.12 0.11 0.09 0.10 0.12 0.12 0.13 0.11 0.10 0.13 0.15 0.11 0.10 0.11 0.12 0.15 0.15 0.09 0.07 0.07
0.00 0.00 0.00 0.01 0.02 0.01 0.01 0.01 0.02 0.02 0.02 0.02 0.02 0.02 0.04 0.03 0.03 0.04 0.05 0.05 0.03 0.05 0.07 0.08 0.12 0.12 0.11 0.10 0.11 0.10 0.10 0.09 0.09 0.09 0.11 0.14 0.14 0.09 0.08 0.11 0.10 0.10 0.10 0.11 0.13 0.10 0.09 0.08 0.07
0.00 0.00 0.01 0.02 0.01 0.01 0.01 0.01 0.02 0.02 0.01 0.01 0.01 0.03 0.04 0.05 0.05 0.04 0.04 0.03 0.05 0.06 0.08 0.09 0.11 0.12 0.10 0.09 0.11 0.11 0.10 0.10 0.10 0.09 0.11 0.13 0.14 0.11 0.09 0.09 0.08 0.07 0.08 0.11 0.10 0.08 0.09 0.09 0.08
0.01 0.01 0.01 0.01 0.01 0.01 0.01 0.01 0.01 0.01 0.01 0.00 0.01 0.02 0.04 0.06 0.05 0.03 0.01 0.01 0.03 0.04 0.06 0.08 0.12 0.13 0.09 0.10 0.12 0.11 0.11 0.11 0.11 0.11 0.11 0.12 0.14 0.13 0.10 0.10 0.09 0.08 0.08 0.11 0.10 0.10 0.10 0.10 0.08
0.01 0.00 0.01 0.01 0.01 0.01 0.02 0.01 0.01 0.00 0.00 0.00 0.00 0.01 0.02 0.04 0.04 0.03 0.02 0.02 0.02 0.02 0.03 0.07 0.19 0.23 0.13 0.09 0.10 0.11 0.11 0.10 0.11 0.11 0.10 0.11 0.11 0.12 0.12 0.11 0.10 0.09 0.10 0.12 0.11 0.10 0.13 0.10 0.08
0.01 0.01 0.01 0.01 0.02 0.02 0.02 0.01 0.01 0.00 0.00 0.00 0.00 0.00 0.01 0.02 0.02 0.02 0.01 0.01 0.02 0.02 0.03 0.05 0.17 0.22 0.17 0.10 0.10 0.10 0.09 0.10 0.08 0.07 0.07 0.09 0.10 0.11 0.11 0.09 0.07 0.08 0.08 0.11 0.12 0.11 0.14 0.11 0.09
0.01 0.01 0.01 0.01 0.02 0.02 0.01 0.01 0.01 0.00 0.01 0.00 0.00 0.00 0.01 0.01 0.01 0.01 0.00 0.00 0.00 0.01 0.02 0.02 0.04 0.07 0.07 0.07 0.08 0.08 0.08 0.08 0.07 0.05 0.06 0.06 0.07 0.08 0.10 0.10 0.06 0.05 0.06 0.09 0.11 0.11 0.10 0.09 0.07
0.00 0.01 0.01 0.01 0.02 0.02 0.01 0.01 0.00 0.00 0.00 0.00 0.00 0.00 0.01 0.01 0.01 0.01 0.01 0.00 0.00 0.00 0.01 0.01 0.01 0.04 0.07 0.07 0.06 0.07 0.08 0.07 0.06 0.05 0.05 0.04 0.05 0.04 0.07 0.11 0.09 0.08 0.09 0.11 0.10 0.10 0.09 0.08 0.06
0.00 0.00 0.00 0.01 0.01 0.01 0.01 0.00 0.00 0.00 0.00 0.00 0.00 0.00 0.00 0.01 0.01 0.01 0.01 0.01 0.01 0.00 0.01 0.01 0.01 0.06 0.08 0.06 0.06 0.06 0.07 0.07 0.04 0.03 0.03 0.03 0.04 0.04 0.03 0.05 0.07 0.08 0.08 0.10 0.08 0.07 0.07 0.05 0.04
0.00 0.00 0.00 0.00 0.00 0.00 0.00 0.00 0.00 0.00 0.00 0.00 0.00 0.00 0.00 0.00 0.00 0.00 0.01 0.01 0.01 0.01 0.02 0.01 0.01 0.04 0.08 0.07 0.05 0.04 0.05 0.05 0.04 0.03 0.04 0.03 0.04 0.03 0.03 0.03 0.04 0.05 0.06 0.09 0.07 0.04 0.04 0.04 0.04
0.00 0.00 0.00 0.00 0.00 0.00 0.00 0.00 0.00 0.00 0.00 0.00 0.00 0.00 0.00 0.00 0.00 0.00 0.01 0.01 0.01 0.01 0.02 0.02 0.01 0.03 0.06 0.06 0.05 0.04 0.04 0.04 0.04 0.03 0.02 0.03 0.03 0.02 0.02 0.03 0.02 0.03 0.03 0.06 0.07 0.04 0.04 0.04 0.03
0.00 0.00 0.00 0.00 0.00 0.00 0.00 0.00 0.00 0.00 0.00 0.00 0.00 0.00 0.00 0.00 0.00 0.00 0.01 0.01 0.00 0.01 0.01 0.00 0.01 0.02 0.04 0.05 0.04 0.03 0.03 0.02 0.02 0.01 0.02 0.02 0.02 0.02 0.03 0.02 0.01 0.01 0.02 0.03 0.07 0.05 0.05 0.05 0.05
0.00 0.00 0.00 0.00 0.00 0.00 0.00 0.00 0.00 0.00 0.00 0.00 0.00 0.00 0.00 0.00 0.00 0.00 0.01 0.00 0.00 0.01 0.01 0.01 0.01 0.01 0.02 0.02 0.01 0.02 0.03 0.02 0.01 0.01 0.01 0.02 0.02 0.04 0.03 0.01 0.01 0.01 0.02 0.02 0.03 0.04 0.05 0.06 0.05
0.00 0.00 0.00 0.00 0.00 0.00 0.00 0.00 0.00 0.00 0.00 0.00 0.00 0.00 0.00 0.00 0.00 0.00 0.01 0.00 0.00 0.00 0.01 0.02 0.01 0.01 0.01 0.01 0.01 0.01 0.02 0.02 0.02 0.02 0.01 0.01 0.02 0.05 0.03 0.02 0.02 0.02 0.01 0.01 0.02 0.03 0.04 0.05 0.05
0.00 0.00 0.01 0.01 0.00 0.00 0.00 0.00 0.00 0.00 0.00 0.00 0.00 0.00 0.00 0.00 0.00 0.00 0.00 0.00 0.00 0.00 0.00 0.01 0.00 0.01 0.01 0.01 0.01 0.02 0.02 0.02 0.02 0.02 0.02 0.03 0.03 0.03 0.02 0.01 0.01 0.01 0.01 0.01 0.02 0.03 0.05 0.05 0.04
0.00 0.00 0.01 0.01 0.01 0.00 0.00 0.00 0.00 0.00 0.00 0.00 0.00 0.00 0.00 0.00 0.00 0.00 0.00 0.00 0.00 0.00 0.00 0.00 0.00 0.00 0.01 0.00 0.00 0.01 0.02 0.01 0.01 0.01 0.04 0.06 0.07 0.05 0.02 0.01 0.01 0.01 0.01 0.02 0.03 0.04 0.05 0.05 0.04
0.00 0.00 0.00 0.01 0.00 0.00 0.00 0.00 0.00 0.00 0.00 0.00 0.00 0.01 0.01 0.00 0.00 0.00 0.00 0.00 0.00 0.00 0.00 0.00 0.00 0.00 0.00 0.01 0.01 0.01 0.01 0.01 0.01 0.01 0.01 0.02 0.03 0.03 0.02 0.02 0.01 0.02 0.02 0.02 0.02 0.05 0.06 0.04 0.04
0.00 0.00 0.01 0.00 0.00 0.00 0.00 0.00 0.00 0.00 0.00 0.00 0.00 0.01 0.01 0.00 0.00 0.00 0.00 0.00 0.00 0.00 0.00 0.00 0.00 0.00 0.00 0.01 0.01 0.01 0.02 0.01 0.02 0.02 0.01 0.01 0.01 0.01 0.02 0.01 0.01 0.02 0.03 0.03 0.02 0.03 0.03 0.02 0.03
0.01 0.00 0.00 0.00 0.00 0.00 0.00 0.00 0.00 0.00 0.00 0.00 0.00 0.01 0.01 0.01 0.00 0.01 0.00 0.00 0.00 0.00 0.00 0.00 0.00 0.00 0.00 0.00 0.00 0.00 0.01 0.01 0.01 0.01 0.01 0.00 0.00 0.00 0.01 0.01 0.01 0.02 0.03 0.02 0.02 0.02 0.03 0.03 0.02
0.01 0.01 0.00 0.00 0.00 0.00 0.00 0.00 0.00 0.00 0.00 0.00 0.00 0.00 0.00 0.00 0.00 0.01 0.01 0.00 0.01 0.01 0.01 0.00 0.00 0.00 0.00 0.00 0.00 0.00 0.01 0.01 0.02 0.02 0.01 0.00 0.00 0.00 0.01 0.01 0.01 0.01 0.02 0.04 0.03 0.03 0.04 0.04 0.02
0.01 0.01 0.00 0.00 0.00 0.00 0.00 0.00 0.00 0.00 0.00 0.00 0.00 0.00 0.00 0.00 0.00 0.00 0.01 0.00 0.00 0.01 0.01 0.00 0.00 0.00 0.00 0.00 0.00 0.00 0.01 0.01 0.01 0.01 0.01 0.00 0.01 0.01 0.01 0.01 0.01 0.01 0.02 0.03 0.02 0.02 0.03 0.04 0.04
0.01 0.00 0.00 0.00 0.00 0.00 0.00 0.00 0.00 0.00 0.00 0.00 0.00 0.00 0.00 0.00 0.00 0.00 0.01 0.01 0.00 0.01 0.01 0.00 0.00 0.00 0.00 0.00 0.00 0.00 0.00 0.00 0.00 0.00 0.01 0.00 0.01 0.01 0.01 0.01 0.02 0.02 0.02 0.01 0.01 0.02 0.03 0.03 0.05
0.00 0.00 0.00 0.00 0.01 0.00 0.00 0.00 0.00 0.00 0.00 0.00 0.00 0.00 0.00 0.00 0.00 0.01 0.01 0.00 0.00 0.00 0.00 0.00 0.00 0.00 0.00 0.00 0.00 0.00 0.00 0.00 0.00 0.01 0.01 0.01 0.01 0.01 0.01 0.01 0.01 0.01 0.01 0.01 0.01 0.01 0.02 0.02 0.02
0.00 0.00 0.01 0.01 0.01 0.01 0.00 0.00 0.00 0.00 0.00 0.00 0.00 0.00 0.00 0.00 0.00 0.00 0.00 0.01 0.00 0.00 0.00 0.00 0.00 0.00 0.00 0.00 0.00 0.00 0.00 0.00 0.00 0.00 0.01 0.02 0.02 0.01 0.00 0.00 0.01 0.01 0.01 0.01 0.02 0.02 0.02 0.01 0.02
0.00 0.00 0.00 0.01 0.00 0.00 0.00 0.00 0.00 0.00 0.00 0.00 0.00 0.00 0.00 0.00 0.00 0.00 0.01 0.01 0.00 0.00 0.00 0.00 0.00 0.00 0.00 0.00 0.00 0.00 0.00 0.00 0.00 0.01 0.01 0.01 0.02 0.01 0.00 0.00 0.01 0.01 0.01 0.01 0.02 0.02 0.02 0.01 0.01
0.00 0.00 0.00 0.00 0.00 0.01 0.00 0.00 0.00 0.00 0.00 0.00 0.00 0.00 0.00 0.00 0.00 0.00 0.00 0.00 0.00 0.00 0.00 0.00 0.00 0.00 0.00 0.00 0.00 0.00 0.00 0.00 0.00 0.00 0.01 0.01 0.01 0.01 0.01 0.01 0.01 0.01 0.01 0.02 0.02 0.03 0.02 0.02 0.02
0.00 0.00 0.00 0.00 0.00 0.00 0.00 0.00 0.00 0.00 0.00 0.00 0.00 0.00 0.00 0.00 0.01 0.00 0.00 0.00 0.00 0.00 0.00 0.00 0.00 0.00 0.00 0.00 0.00 0.00 0.00 0.00 0.00 0.00 0.01 0.01 0.01 0.01 0.01 0.01 0.01 0.01 0.01 0.01 0.03 0.05 0.04 0.03 0.03
0.00 0.00 0.00 0.00 0.00 0.00 0.00 0.00 0.00 0.00 0.00 0.00 0.00 0.00 0.00 0.00 0.00 0.00 0.00 0.00 0.00 0.00 0.00 0.00 0.00 0.00 0.00 0.00 0.00 0.00 0.00 0.00 0.00 0.00 0.00 0.00 0.01 0.01 0.01 0.00 0.00 0.01 0.01 0.01 0.02 0.04 0.04 0.05 0.04
0.00 0.00 0.00 0.00 0.00 0.00 0.00 0.00 0.00 0.00 0.00 0.00 0.00 0.00 0.00 0.00 0.00 0.00 0.00 0.00 0.00 0.00 0.00 0.00 0.00 0.00 0.00 0.00 0.00 0.00 0.00 0.00 0.00 0.00 0.00 0.00 0.00 0.00 0.00 0.00 0.00 0.01 0.01 0.01 0.01 0.01 0.02 0.04 0.05
MSLP
1011.27 1011.86 1012.70 1013.69 1014.73 1015.70 1016.50 1017.04 1017.32 1017.36 1017.25 1017.08 1016.92 1016.84 1016.84 1016.89 1016.94 1016.92 1016.78 1016.51 1016.13 1015.69 1015.25 1014.87 1014.59 1014.42 1014.31 1014.22 1014.09 1013.90 1013.61 1013.26 1012.89 1012.56 1012.33 1012.22 1012.24 1012.36 1012.54 1012.74 1012.89 1012.98 1013.02 1013.03 1013.03 1013.07 1013.17 1013.33 1013.55
1011.61 1012.36 1013.30 1014.35 1015.38 1016.29 1016.96 1017.36 1017.48 1017.38 1017.14 1016.88 1016.68 1016.59 1016.61 1016.70 1016.78 1016.81 1016.71 1016.48 1016.14 1015.74 1015.35 1015.03 1014.82 1014.69 1014.62 1014.54 1014.41 1014.17 1013.83 1013.41 1012.97 1012.58 1012.30 1012.17 1012.18 1012.31 1012.52 1012.74 1012.93 1013.05 1013.12 1013.14 1013.17 1013.22 1013.32 1013.49 1013.69
1012.08 1012.94 1013.96 1015.01 1015.99 1016.78 1017.31 1017.55 1017.51 1017.27 1016.94 1016.62 1016.40 1016.30 1016.34 1016.46 1016.57 1016.62 1016.55 1016.35 1016.05 1015.70 1015.38 1015.13 1014.98 1014.91 1014.89 1014.83 1014.69 1014.43 1014.05 1013.57 1013.08 1012.64 1012.33 1012.17 1012.18 1012.32 1012.54 1012.78 1012.99 1013.14 1013.24 1013.30 1013.35 1013.44 1013.57 1013.74 1013.94
1012.63 1013.58 1014.61 1015.63 1016.51 1017.17 1017.54 1017.63 1017.46 1017.12 1016.72 1016.37 1016.14 1016.06 1016.10 1016.22 1016.34 1016.39 1016.32 1016.13 1015.86 1015.56 1015.30 1015.13 1015.05 1015.05 1015.07 1015.05 1014.92 1014.64 1014.23 1013.72 1013.20 1012.74 1012.41 1012.24 1012.24 1012.39 1012.61 1012.86 1013.09 1013.26 1013.39 1013.49 1013.59 1013.72 1013.89 1014.09 1014.29
1013.22 1014.21 1015.22 1016.17 1016.93 1017.45 1017.68 1017.63 1017.37 1016.97 1016.54 1016.19 1015.97 1015.89 1015.94 1016.04 1016.14 1016.15 1016.06 1015.86 1015.61 1015.34 1015.14 1015.04 1015.04 1015.10 1015.17 1015.18 1015.06 1014.78 1014.36 1013.84 1013.31 1012.85 1012.52 1012.36 1012.37 1012.51 1012.73 1012.98 1013.21 1013.40 1013.56 1013.70 1013.86 1014.05 1014.27 1014.50 1014.72
1013.80 1014.79 1015.76 1016.60 1017.23 1017.62 1017.72 1017.58 1017.26 1016.84 1016.43 1016.10 1015.90 1015.84 1015.87 1015.93 1015.97 1015.93 1015.79 1015.56 1015.30 1015.07 1014.92 1014.87 1014.94 1015.06 1015.18 1015.21 1015.11 1014.84 1014.43 1013.93 1013.42 1012.97 1012.66 1012.52 1012.54 1012.68 1012.90 1013.13 1013.35 1013.55 1013.72 1013.90 1014.11 1014.36 1014.64 1014.93 1015.17
1014.34 1015.30 1016.17 1016.90 1017.41 1017.67 1017.68 1017.49 1017.15 1016.76 1016.39 1016.10 1015.93 1015.87 1015.87 1015.89 1015.86 1015.74 1015.53 1015.27 1015.00 1014.78 1014.66 1014.67 1014.79 1014.96 1015.11 1015.17 1015.08 1014.84 1014.45 1013.98 1013.50 1013.10 1012.83 1012.72 1012.75 1012.89 1013.09 1013.30 1013.50 1013.68 1013.86 1014.06 1014.32 1014.62 1014.97 1015.30 1015.58
1014.81 1015.69 1016.46 1017.06 1017.45 1017.62 1017.57 1017.35 1017.04 1016.69 1016.38 1016.15 1016.02 1015.95 1015.93 1015.88 1015.77 1015.58 1015.31 1015.01 1014.73 1014.52 1014.44 1014.48 1014.63 1014.83 1015.00 1015.08 1015.01 1014.79 1014.43 1014.01 1013.59 1013.24 1013.02 1012.94 1012.99 1013.12 1013.30 1013.47 1013.64 1013.79 1013.96 1014.18 1014.46 1014.82 1015.22 1015.60 1015.93
1015.19 1015.97 1016.62 1017.10 1017.38 1017.46 1017.38 1017.17 1016.89 1016.61 1016.37 1016.20 1016.10 1016.04 1015.98 1015.89 1015.72 1015.46 1015.15 1014.82 1014.53 1014.34 1014.27 1014.34 1014.51 1014.72 1014.90 1014.98 1014.92 1014.72 1014.40 1014.03 1013.67 1013.39 1013.23 1013.19 1013.25 1013.37 1013.52 1013.65 1013.77 1013.90 1014.05 1014.27 1014.57 1014.96 1015.40 1015.84 1016.20
1015.48 1016.15 1016.67 1017.03 1017.22 1017.24 1017.13 1016.94 1016.71 1016.50 1016.32 1016.21 1016.14 1016.09 1016.02 1015.89 1015.68 1015.39 1015.05 1014.71 1014.43 1014.25 1014.20 1014.28 1014.45 1014.65 1014.82 1014.89 1014.84 1014.66 1014.38 1014.06 1013.77 1013.56 1013.45 1013.44 1013.52 1013.63 1013.75 1013.85 1013.93 1014.02 1014.15 1014.37 1014.69 1015.10 1015.58 1016.05 1016.45
1015.70 1016.24 1016.64 1016.89 1016.99 1016.97 1016.85 1016.68 1016.50 1016.34 1016.22 1016.16 1016.12 1016.08 1016.00 1015.86 1015.64 1015.36 1015.03 1014.71 1014.45 1014.29 1014.25 1014.33 1014.48 1014.66 1014.80 1014.85 1014.79 1014.62 1014.39 1014.12 1013.90 1013.74 1013.68 1013.71 1013.79 1013.90 1014.00 1014.07 1014.12 1014.19 1014.31 1014.53 1014.86 1015.30 1015.81 1016.31 1016.74
1015.87 1016.30 1016.59 1016.74 1016.77 1016.70 1016.57 1016.42 1016.27 1016.15 1016.08 1016.05 1016.03 1016.01 1015.94 1015.82 1015.63 1015.37 1015.08 1014.81 1014.58 1014.45 1014.41 1014.47 1014.60 1014.74 1014.84 1014.86 1014.79 1014.64 1014.43 1014.22 1014.04 1013.94 1013.92 1013.97 1014.06 1014.17 1014.25 1014.31 1014.36 1014.43 1014.57 1014.81 1015.16 1015.62 1016.14 1016.66 1017.11
1016.05 1016.37 1016.56 1016.62 1016.59 1016.49 1016.34 1016.19 1016.06 1015.97 1015.91 1015.90 1015.90 1015.89 1015.86 1015.77 1015.63 1015.43 1015.21 1014.99 1014.81 1014.70 1014.67 1014.71 1014.79 1014.88 1014.94 1014.94 1014.86 1014.71 1014.53 1014.36 1014.22 1014.15 1014.16 1014.22 1014.32 1014.43 1014.52 1014.59 1014.66 1014.76 1014.93 1015.21 1015.60 1016.08 1016.62 1017.15 1017.61
1016.29 1016.52 1016.61 1016.61 1016.52 1016.38 1016.22 1016.06 1015.92 1015.82 1015.76 1015.74 1015.74 1015.76 1015.76 1015.73 1015.65 1015.53 1015.38 1015.23 1015.11 1015.02 1014.98 1015.00 1015.04 1015.09 1015.10 1015.07 1014.98 1014.85 1014.69 1014.54 1014.44 1014.39 1014.40 1014.47 1014.57 1014.68 1014.78 1014.88 1014.99 1015.15 1015.39 1015.72 1016.16 1016.68 1017.24 1017.77 1018.22
1016.61 1016.76 1016.79 1016.72 1016.59 1016.42 1016.23 1016.04 1015.87 1015.74 1015.65 1015.61 1015.61 1015.63 1015.67 1015.69 1015.69 1015.66 1015.59 1015.51 1015.43 1015.37 1015.33 1015.32 1015.32 1015.33 1015.31 1015.26 1015.17 1015.05 1014.91 1014.78 1014.69 1014.65 1014.66 1014.72 1014.81 1014.92 1015.04 1015.18 1015.36 1015.59 1015.90 1016.30 1016.79 1017.35 1017.92 1018.45 1018.90
1017.03 1017.11 1017.09 1016.98 1016.82 1016.61 1016.38 1016.15 1015.94 1015.76 1015.62 1015.54 1015.51 1015.54 1015.60 1015.67 1015.74 1015.79 1015.81 1015.79 1015.76 1015.71 1015.67 1015.64 1015.61 1015.58 1015.54 1015.49 1015.40 1015.30 1015.18 1015.08 1014.99 1014.94 1014.93 1014.97 1015.05 1015.15 1015.30 1015.48 1015.72 1016.03 1016.42 1016.89 1017.43 1018.02 1018.60 1019.12 1019.55
1017.51 1017.55 1017.49 1017.36 1017.17 1016.94 1016.68 1016.40 1016.13 1015.87 1015.67 1015.53 1015.46 1015.47 1015.55 1015.66 1015.79 1015.91 1016.00 1016.05 1016.05 1016.03 1015.98 1015.93 1015.89 1015.84 1015.80 1015.74 1015.68 1015.60 1015.50 1015.40 1015.32 1015.25 1015.22 1015.23 1015.29 1015.39 1015.55 1015.77 1016.06 1016.44 1016.89 1017.42 1018.00 1018.60 1019.18 1019.69 1020.10
1017.99 1018.01 1017.94 1017.81 1017.61 1017.37 1017.07 1016.75 1016.41 1016.08 1015.80 1015.58 1015.46 1015.44 1015.52 1015.66 1015.83 1016.01 1016.16 1016.26 1016.30 1016.30 1016.26 1016.20 1016.14 1016.09 1016.05 1016.01 1015.97 1015.91 1015.84 1015.75 1015.67 1015.59 1015.53 1015.51 1015.54 1015.64 1015.80 1016.05 1016.38 1016.80 1017.29 1017.85 1018.45 1019.05 1019.61 1020.09 1020.47
1018.41 1018.43 1018.37 1018.25 1018.08 1017.83 1017.53 1017.16 1016.76 1016.35 1015.98 1015.69 1015.51 1015.44 1015.50 1015.65 1015.86 1016.08 1016.28 1016.42 1016.50 1016.52 1016.49 1016.43 1016.38 1016.33 1016.29 1016.27 1016.25 1016.22 1016.17 1016.10 1016.01 1015.92 1015.84 1015.80 1015.82 1015.90 1016.06 1016.32 1016.67 1017.10 1017.61 1018.17 1018.75 1019.32 1019.84 1020.29 1020.65
1018.72 1018.74 1018.72 1018.65 1018.51 1018.29 1017.99 1017.60 1017.14 1016.67 1016.21 1015.84 1015.58 1015.47 1015.49 1015.64 1015.86 1016.11 1016.35 1016.53 1016.64 1016.68 1016.67 1016.63 1016.57 1016.53 1016.51 1016.50 1016.50 1016.49 1016.46 1016.40 1016.32 1016.23 1016.14 1016.09 1016.10 1016.17 1016.33 1016.59 1016.94 1017.36 1017.85 1018.37 1018.90 1019.42 1019.88 1020.29 1020.62
1018.87 1018.93 1018.97 1018.96 1018.88 1018.71 1018.43 1018.03 1017.54 1017.00 1016.47 1016.02 1015.69 1015.51 1015.49 1015.62 1015.85 1016.12 1016.38 1016.59 1016.74 1016.81 1016.81 1016.78 1016.74 1016.71 1016.69 1016.70 1016.71 1016.71 1016.69 1016.64 1016.57 1016.48 1016.40 1016.35 1016.36 1016.44 1016.60 1016.85 1017.18 1017.57 1018.01 1018.47 1018.93 1019.37 1019.77 1020.11 1020.41
1018.88 1018.99 1019.11 1019.19 1019.19 1019.08 1018.84 1018.45 1017.94 1017.35 1016.75 1016.22 1015.82 1015.58 1015.51 1015.60 1015.82 1016.09 1016.37 1016.61 1016.78 1016.88 1016.91 1016.90 1016.87 1016.84 1016.83 1016.84 1016.85 1016.86 1016.84 1016.80 1016.74 1016.66 1016.60 1016.57 1016.59 1016.68 1016.84 1017.08 1017.38 1017.73 1018.11 1018.50 1018.87 1019.22 1019.54 1019.83 1020.09
1018.81 1018.99 1019.19 1019.37 1019.46 1019.43 1019.23 1018.86 1018.33 1017.71 1017.05 1016.45 1015.97 1015.66 1015.54 1015.59 1015.77 1016.04 1016.33 1016.59 1016.78 1016.91 1016.97 1016.98 1016.96 1016.94 1016.94 1016.94 1016.94 1016.94 1016.93 1016.89 1016.83 1016.77 1016.72 1016.71 1016.76 1016.86 1017.03 1017.26 1017.54 1017.84 1018.15 1018.46 1018.74 1019.01 1019.25 1019.48 1019.70
1018.74 1019.00 1019.28 1019.55 1019.73 1019.76 1019.61 1019.26 1018.73 1018.07 1017.37 1016.70 1016.15 1015.77 1015.58 1015.57 1015.72 1015.96 1016.24 1016.51 1016.73 1016.88 1016.97 1017.01 1017.01 1017.01 1017.00 1017.00 1017.00 1016.98 1016.96 1016.91 1016.86 1016.80 1016.78 1016.78 1016.85 1016.97 1017.15 1017.37 1017.63 1017.89 1018.14 1018.37 1018.58 1018.77 1018.94 1019.11 1019.30
1018.75 1019.07 1019.44 1019.78 1020.03 1020.11 1020.00 1019.66 1019.12 1018.43 1017.68 1016.96 1016.34 1015.88 1015.62 1015.55 1015.65 1015.85 1016.12 1016.38 1016.61 1016.79 1016.91 1016.98 1017.02 1017.04 1017.05 1017.05 1017.04 1017.01 1016.97 1016.91 1016.85 1016.79 1016.77 1016.79 1016.86 1016.99 1017.18 1017.39 1017.62 1017.85 1018.06 1018.23 1018.38 1018.51 1018.63 1018.77 1018.93
1018.88 1019.26 1019.68 1020.08 1020.36 1020.48 1020.37 1020.03 1019.48 1018.76 1017.97 1017.20 1016.52 1015.99 1015.66 1015.52 1015.56 1015.71 1015.94 1016.19 1016.43 1016.63 1016.79 1016.90 1016.98 1017.03 1017.06 1017.08 1017.07 1017.04 1016.99 1016.91 1016.83 1016.76 1016.73 1016.74 1016.81 1016.94 1017.12 1017.32 1017.54 1017.74 1017.91 1018.05 1018.17 1018.26 1018.35 1018.46 1018.61
1019.14 1019.56 1020.01 1020.42 1020.71 1020.82 1020.70 1020.34 1019.77 1019.03 1018.21 1017.40 1016.67 1016.09 1015.69 1015.48 1015.45 1015.54 1015.73 1015.95 1016.18 1016.40 1016.58 1016.74 1016.87 1016.97 1017.05 1017.10 1017.11 1017.09 1017.02 1016.94 1016.84 1016.75 1016.69 1016.68 1016.73 1016.84 1017.00 1017.19 1017.38 1017.56 1017.72 1017.84 1017.94 1018.02 1018.10 1018.21 1018.35
1019.49 1019.92 1020.36 1020.75 1021.01 1021.08 1020.93 1020.54 1019.95 1019.19 1018.36 1017.52 1016.77 1016.15 1015.70 1015.43 1015.32 1015.36 1015.48 1015.67 1015.88 1016.10 1016.31 1016.51 1016.69 1016.85 1016.99 1017.08 1017.14 1017.14 1017.08 1016.99 1016.88 1016.76 1016.67 1016.63 1016.65 1016.73 1016.85 1017.02 1017.19 1017.36 1017.50 1017.62 1017.72 1017.81 1017.90 1018.01 1018.17
1019.86 1020.26 1020.66 1020.99 1021.19 1021.20 1021.00 1020.58 1019.97 1019.21 1018.38 1017.56 1016.80 1016.17 1015.69 1015.37 1015.21 1015.17 1015.23 1015.36 1015.54 1015.74 1015.96 1016.19 1016.42 1016.64 1016.84 1017.01 1017.11 1017.16 1017.13 1017.06 1016.94 1016.81 1016.70 1016.62 1016.60 1016.64 1016.73 1016.86 1017.02 1017.17 1017.31 1017.43 1017.54 1017.64 1017.74 1017.87 1018.04
1020.16 1020.52 1020.85 1021.09 1021.20 1021.14 1020.88 1020.43 1019.82 1019.08 1018.29 1017.51 1016.79 1016.17 1015.68 1015.34 1015.12 1015.02 1015.00 1015.06 1015.18 1015.35 1015.56 1015.80 1016.06 1016.34 1016.60 1016.83 1017.00 1017.11 1017.14 1017.09 1017.00 1016.87 1016.75 1016.66 1016.61 1016.61 1016.67 1016.77 1016.90 1017.04 1017.17 1017.29 1017.40 1017.52 1017.64 1017.78 1017.96
Thickness
5800 5802 5803 5795 5784 5772 5758 5760 5767 5765 5766 5770 5771 5769 5764 5758 5752 5745 5758 5765 5765 5764 5763 5760 5758 5758 5757 5757 5756 5756 5755 5754 5754 5754 5753 5753 5753 5752 5752 5753 5753 5753 5754 5753 5753 5754 5754 5754 5755
5803 5802 5797 5790 5775 5758 5751 5761 5762 5764 5768 5771 5770 5768 5763 5756 5760 5759 5760 5762 5763 5762 5760 5758 5756 5755 5754 5754 5753 5752 5752 5752 5751 5751 5750 5749 5749 5749 5749 5749 5749 5749 5750 5749 5749 5750 5750 5751 5752
5803 5801 5790 5781 5766 5757 5751 5760 5762 5766 5770 5770 5765 5765 5760 5753 5757 5758 5760 5762 5762 5760 5758 5755 5753 5752 5751 5750 5750 5749 5749 5749 5748 5747 5747 5746 5746 5746 5746 5746 5746 5746 5746 5746 5746 5746 5746 5747 5748
5801 5794 5787 5772 5756 5759 5760 5763 5766 5764 5767 5768 5765 5757 5757 5757 5758 5760 5760 5761 5760 5758 5756 5753 5751 5750 5748 5748 5747 5746 5746 5746 5745 5744 5744 5743 5743 5743 5743 5743 5743 5742 5742 5742 5742 5742 5743 5743 5744
5799 5787 5771 5759 5755 5760 5765 5768 5769 5764 5762 5764 5763 5753 5749 5755 5759 5760 5759 5759 5757 5756 5754 5752 5748 5747 5746 5745 5744 5743 5743 5743 5742 5741 5741 5741 5740 5740 5739 5739 5739 5739 5738 5738 5738 5738 5739 5740 5740
5788 5782 5763 5751 5752 5758 5765 5768 5767 5763 5761 5762 5759 5752 5747 5755 5756 5756 5757 5756 5755 5753 5752 5750 5746 5744 5743 5742 5741 5740 5740 5739 5739 5738 5738 5737 5737 5736 5736 5736 5735 5735 5735 5734 5734 5734 5735 5735 5736
5781 5772 5759 5755 5750 5753 5759 5767 5764 5760 5758 5759 5761 5751 5748 5752 5755 5756 5755 5754 5753 5751 5750 5749 5746 5744 5741 5740 5739 5738 5737 5736 5735 5734 5734 5734 5733 5733 5733 5732 5732 5732 5731 5731 5730 5731 5731 5731 5731
5787 5774 5758 5756 5750 5750 5761 5763 5763 5760 5756 5763 5762 5751 5746 5751 5754 5754 5752 5751 5750 5749 5748 5747 5745 5743 5742 5740 5736 5735 5733 5733 5732 5731 5731 5731 5730 5730 5729 5729 5728 5728 5728 5727 5727 5727 5727 5727 5727
5789 5769 5754 5753 5751 5752 5761 5759 5760 5764 5760 5758 5760 5757 5755 5755 5753 5750 5748 5747 5745 5745 5746 5745 5743 5742 5740 5738 5734 5733 5731 5730 5730 5729 5728 5729 5731 5730 5728 5725 5724 5724 5723 5723 5723 5723 5724 5724 5724
5780 5760 5754 5761 5763 5759 5759 5758 5759 5757 5753 5752 5752 5753 5754 5752 5749 5747 5745 5743 5742 5742 5743 5744 5742 5740 5738 5735 5734 5732 5731 5729 5729 5728 5727 5728 5728 5726 5725 5722 5721 5720 5720 5720 5720 5720 5721 5722 5724
5774 5761 5761 5764 5767 5764 5759 5758 5761 5754 5747 5751 5750 5750 5750 5748 5747 5745 5744 5743 5742 5742 5741 5742 5741 5738 5736 5733 5732 5730 5729 5727 5727 5726 5725 5725 5725 5724 5724 5723 5721 5720 5719 5719 5718 5720 5720 5721 5720
5768 5765 5766 5764 5765 5763 5760 5758 5755 5754 5752 5759 5758 5755 5750 5746 5745 5744 5743 5742 5741 5740 5739 5739 5739 5737 5735 5733 5731 5729 5728 5726 5725 5724 5724 5724 5723 5723 5722 5721 5720 5719 5717 5716 5717 5717 5717 5718 5717
5765 5761 5764 5765 5764 5763 5760 5756 5753 5752 5757 5759 5756 5752 5748 5747 5745 5745 5744 5742 5740 5738 5738 5737 5736 5736 5733 5730 5728 5727 5725 5725 5724 5721 5722 5722 5722 5721 5721 5719 5717 5716 5715 5714 5714 5715 5714 5714 5713
5764 5763 5762 5763 5762 5761 5755 5754 5752 5752 5756 5753 5750 5748 5748 5745 5744 5743 5741 5739 5739 5737 5737 5736 5734 5733 5731 5729 5728 5726 5724 5721 5722 5720 5720 5720 5719 5719 5718 5717 5715 5714 5713 5712 5712 5712 5710 5710 5710
5766 5758 5756 5758 5759 5758 5755 5746 5749 5755 5755 5750 5748 5747 5745 5745 5744 5741 5741 5739 5739 5738 5737 5734 5732 5731 5730 5728 5725 5724 5722 5721 5720 5719 5718 5718 5717 5717 5716 5715 5714 5712 5711 5710 5710 5709 5708 5707 5707
5760 5752 5743 5750 5755 5755 5748 5735 5749 5755 5752 5748 5748 5747 5743 5742 5743 5742 5741 5740 5739 5737 5735 5732 5730 5728 5727 5725 5723 5722 5721 5719 5717 5717 5716 5715 5715 5714 5712 5712 5711 5709 5709 5708 5707 5707 5705 5704 5704
5749 5741 5739 5744 5752 5752 5745 5737 5749 5754 5750 5747 5747 5747 5744 5743 5742 5742 5740 5739 5738 5736 5734 5732 5729 5726 5724 5723 5722 5720 5719 5717 5716 5714 5713 5713 5712 5712 5711 5709 5707 5707 5707 5706 5706 5704 5703 5701 5699
5738 5740 5738 5739 5747 5746 5741 5741 5749 5752 5749 5748 5748 5746 5744 5743 5742 5742 5740 5739 5737 5735 5733 5731 5727 5725 5723 5721 5721 5718 5717 5716 5714 5713 5711 5710 5710 5709 5708 5706 5706 5705 5704 5703 5702 5700 5699 5698 5697
5746 5740 5736 5740 5748 5743 5740 5741 5747 5751 5749 5747 5747 5746 5744 5744 5745 5743 5739 5737 5735 5733 5731 5729 5726 5724 5721 5718 5717 5715 5714 5713 5712 5711 5709 5708 5707 5707 5706 5705 5704 5703 5702 5701 5701 5699 5697 5696 5697
5742 5737 5736 5740 5745 5742 5739 5741 5748 5751 5749 5749 5748 5747 5745 5743 5743 5739 5738 5737 5735 5732 5730 5729 5726 5723 5720 5717 5717 5715 5713 5712 5710 5708 5707 5707 5706 5705 5704 5704 5703 5701 5700 5699 5699 5697 5696 5695 5696
5738 5736 5735 5734 5738 5742 5738 5738 5744 5749 5751 5750 5750 5750 5749 5745 5743 5740 5737 5735 5733 5730 5729 5727 5725 5722 5719 5716 5715 5712 5710 5709 5708 5706 5705 5705 5704 5703 5702 5703 5702 5701 5700 5698 5697 5696 5694 5693 5695
5731 5740 5737 5733 5731 5730 5732 5723 5739 5746 5746 5747 5748 5749 5749 5747 5744 5741 5737 5734 5732 5730 5730 5728 5725 5722 5718 5716 5713 5710 5707 5705 5706 5706 5704 5703 5702 5701 5701 5700 5700 5700 5699 5698 5697 5696 5695 5693 5693
5737 5740 5737 5734 5730 5728 5732 5725 5736 5744 5740 5745 5749 5750 5749 5748 5745 5742 5738 5735 5733 5730 5727 5726 5723 5720 5716 5714 5711 5708 5707 5706 5706 5705 5703 5703 5701 5700 5699 5699 5698 5698 5698 5697 5696 5696 5695 5694 5693
5738 5734 5731 5731 5729 5716 5726 5722 5725 5741 5741 5745 5749 5751 5750 5748 5745 5742 5739 5734 5731 5728 5725 5723 5720 5717 5714 5711 5710 5708 5706 5704 5703 5702 5701 5701 5701 5700 5699 5698 5698 5698 5697 5697 5696 5695 5694 5694 5693
5735 5725 5714 5712 5711 5715 5727 5722 5728 5744 5747 5747 5747 5750 5750 5747 5744 5740 5735 5731 5729 5726 5723 5721 5718 5716 5713 5711 5709 5708 5706 5705 5703 5702 5701 5700 5700 5699 5698 5698 5698 5697 5697 5696 5695 5695 5694 5693 5691
5730 5729 5714 5705 5707 5716 5721 5721 5736 5747 5748 5749 5749 5750 5749 5746 5743 5739 5735 5732 5729 5726 5723 5721 5718 5715 5713 5710 5709 5708 5706 5704 5703 5701 5701 5699 5699 5699 5698 5697 5697 5696 5696 5695 5694 5694 5694 5693 5692
5726 5725 5731 5720 5713 5709 5719 5728 5739 5745 5743 5744 5745 5744 5743 5742 5740 5738 5735 5732 5729 5726 5722 5720 5717 5714 5712 5710 5708 5706 5705 5703 5702 5701 5700 5699 5699 5698 5697 5696 5696 5695 5694 5694 5694 5693 5692 5692 5691
5729 5727 5720 5712 5700 5700 5710 5717 5725 5732 5735 5739 5740 5739 5740 5740 5738 5736 5734 5731 5729 5726 5722 5720 5717 5714 5712 5709 5707 5705 5704 5702 5700 5700 5698 5698 5698 5696 5696 5696 5695 5694 5692 5692 5691 5691 5689 5690 5688
5714 5714 5716 5715 5712 5703 5701 5715 5735 5733 5734 5735 5737 5739 5738 5737 5736 5734 5732 5730 5728 5725 5721 5718 5716 5713 5711 5709 5706 5704 5702 5701 5699 5697 5696 5696 5696 5696 5695 5694 5694 5693 5692 5692 5690 5689 5688 5688 5688
5715 5713 5712 5702 5703 5707 5705 5714 5736 5735 5735 5734 5735 5735 5736 5734 5733 5732 5730 5728 5725 5722 5720 5717 5715 5712 5709 5708 5705 5703 5701 5699 5698 5696 5695 5695 5695 5694 5694 5693 5692 5691 5690 5690 5689 5687 5686 5686 5685